AZU2485 SBCF-SBPA

Flight info

Callsign AZU2485
Flight time N/A
Altitude 38000
Route DEUCA UZ21 VUNOX UZ38 VUKMO
Aircraft A339/H-SADE1E2E3GHIJ3J5M1P2RWXY/LB2D1

Departure

Time 2026-05-01 13:50
Airport Tancredo Neves International Airport (SBCF)

Arrival

Time N/A
Airport Porto Alegre-Salgado Filho International Airport (SBPA)
Time Latitude Longitude Altitude Speed Heading
2026-05-01 13:28 -19.63254 -43.96468 2764 ft 0 kts 68°
2026-05-01 13:37 -19.63255 -43.96469 2764 ft 1 kts 68°
2026-05-01 13:37 -19.63260 -43.96484 2765 ft 1 kts 68°
2026-05-01 13:38 -19.63273 -43.96505 2765 ft 2 kts 35°
2026-05-01 13:38 -19.63286 -43.96513 2766 ft 2 kts 14°
2026-05-01 13:38 -19.63301 -43.96514 2766 ft 2 kts 352°
2026-05-01 13:39 -19.63316 -43.96510 2766 ft 2 kts 330°
2026-05-01 13:39 -19.63323 -43.96505 2766 ft 1 kts 318°
2026-05-01 13:39 -19.63325 -43.96503 2766 ft 0 kts 319°
2026-05-01 13:42 -19.63319 -43.96508 2766 ft 2 kts 319°
2026-05-01 13:42 -19.63303 -43.96522 2766 ft 4 kts 320°
2026-05-01 13:42 -19.63265 -43.96553 2766 ft 9 kts 323°
2026-05-01 13:43 -19.63212 -43.96603 2766 ft 10 kts 298°
2026-05-01 13:43 -19.63229 -43.96674 2766 ft 10 kts 232°
2026-05-01 13:43 -19.63266 -43.96741 2766 ft 9 kts 276°
2026-05-01 13:43 -19.63233 -43.96781 2766 ft 6 kts 311°
2026-05-01 13:44 -19.63199 -43.96821 2766 ft 8 kts 316°
2026-05-01 13:44 -19.63149 -43.96867 2766 ft 10 kts 319°
2026-05-01 13:44 -19.63084 -43.96927 2766 ft 13 kts 318°
2026-05-01 13:44 -19.63004 -43.97002 2766 ft 16 kts 318°
2026-05-01 13:45 -19.62913 -43.97089 2766 ft 18 kts 318°
2026-05-01 13:45 -19.62815 -43.97176 2766 ft 18 kts 320°
2026-05-01 13:45 -19.62720 -43.97264 2766 ft 17 kts 319°
2026-05-01 13:45 -19.62626 -43.97351 2766 ft 17 kts 319°
2026-05-01 13:46 -19.62533 -43.97437 2766 ft 17 kts 319°
2026-05-01 13:46 -19.62441 -43.97522 2766 ft 17 kts 318°
2026-05-01 13:46 -19.62351 -43.97606 2765 ft 17 kts 319°
2026-05-01 13:46 -19.62260 -43.97689 2765 ft 15 kts 316°
2026-05-01 13:47 -19.62250 -43.97755 2765 ft 4 kts 236°
2026-05-01 13:47 -19.62275 -43.97783 2765 ft 6 kts 207°
2026-05-01 13:47 -19.62323 -43.97791 2765 ft 7 kts 184°
2026-05-01 13:47 -19.62379 -43.97793 2766 ft 7 kts 163°
2026-05-01 13:48 -19.62425 -43.97766 2766 ft 5 kts 138°
2026-05-01 13:48 -19.62428 -43.97763 2766 ft 0 kts 137°
2026-05-01 13:50 -19.62511 -43.97685 2766 ft 51 kts 139°
2026-05-01 13:50 -19.62991 -43.97242 2766 ft 127 kts 136°
2026-05-01 13:50 -19.63831 -43.96475 2813 ft 183 kts 137°
2026-05-01 13:50 -19.64830 -43.95557 3395 ft 195 kts 137°
2026-05-01 13:51 -19.65824 -43.94597 4148 ft 193 kts 136°
2026-05-01 13:51 -19.66816 -43.93679 4861 ft 189 kts 136°
2026-05-01 13:51 -19.67840 -43.92744 5217 ft 204 kts 136°
2026-05-01 13:51 -19.69043 -43.91802 5538 ft 224 kts 154°
2026-05-01 13:52 -19.70638 -43.91594 5999 ft 242 kts 189°
2026-05-01 13:52 -19.72149 -43.92382 6663 ft 248 kts 224°
2026-05-01 13:52 -19.73187 -43.93840 7327 ft 251 kts 238°
2026-05-01 13:52 -19.73760 -43.95583 7907 ft 255 kts 270°
2026-05-01 13:53 -19.73368 -43.97378 8535 ft 253 kts 304°
2026-05-01 13:53 -19.70580 -43.99318 9901 ft 246 kts 345°
2026-05-01 13:53 -19.68950 -43.99887 10557 ft 249 kts 345°
2026-05-01 13:54 -19.67284 -44.00483 11196 ft 252 kts 344°
2026-05-01 13:54 -19.65624 -44.01095 11798 ft 255 kts 343°
2026-05-01 13:54 -19.63959 -44.01722 12384 ft 257 kts 343°
2026-05-01 13:54 -19.62243 -44.02376 12955 ft 260 kts 342°
2026-05-01 13:55 -19.60547 -44.03026 13504 ft 263 kts 342°
2026-05-01 13:55 -19.58812 -44.03691 14060 ft 265 kts 342°
2026-05-01 13:55 -19.57187 -44.04621 14580 ft 271 kts 318°
2026-05-01 13:55 -19.56119 -44.06258 15087 ft 279 kts 290°
2026-05-01 13:56 -19.55843 -44.08354 15378 ft 294 kts 268°
2026-05-01 13:56 -19.55973 -44.10578 15649 ft 310 kts 266°
2026-05-01 13:56 -19.56124 -44.12926 15914 ft 325 kts 267°
2026-05-01 13:56 -19.56257 -44.15342 16167 ft 340 kts 268°
2026-05-01 13:57 -19.56426 -44.17913 16422 ft 355 kts 264°
2026-05-01 13:57 -19.56721 -44.20580 16713 ft 369 kts 263°
2026-05-01 13:57 -19.57044 -44.23290 17199 ft 375 kts 263°
2026-05-01 13:57 -19.57373 -44.26037 17814 ft 377 kts 263°
2026-05-01 13:58 -19.57702 -44.28807 18431 ft 379 kts 263°
2026-05-01 13:58 -19.58030 -44.31589 19032 ft 382 kts 263°
2026-05-01 13:58 -19.58354 -44.34356 19620 ft 384 kts 263°
2026-05-01 13:58 -19.58750 -44.37192 20185 ft 387 kts 255°
2026-05-01 13:59 -19.59856 -44.39777 20706 ft 390 kts 234°
2026-05-01 13:59 -19.61747 -44.41832 21297 ft 392 kts 216°
2026-05-01 13:59 -19.64145 -44.43133 21861 ft 393 kts 200°
2026-05-01 13:59 -19.66732 -44.44118 22395 ft 396 kts 200°
2026-05-01 14:00 -19.69340 -44.45106 22913 ft 400 kts 200°
2026-05-01 14:00 -19.71993 -44.46121 23440 ft 403 kts 200°
2026-05-01 14:00 -19.74625 -44.47139 23942 ft 406 kts 201°
2026-05-01 14:00 -19.77266 -44.48168 24437 ft 409 kts 201°
2026-05-01 14:01 -19.79971 -44.49225 24937 ft 412 kts 201°
2026-05-01 14:01 -19.82653 -44.50277 25423 ft 415 kts 201°
2026-05-01 14:01 -19.85394 -44.51352 25912 ft 418 kts 201°
2026-05-01 14:01 -19.88145 -44.52432 26392 ft 421 kts 201°
2026-05-01 14:02 -19.90883 -44.53508 26855 ft 424 kts 201°
2026-05-01 14:02 -19.93640 -44.54592 27306 ft 427 kts 201°
2026-05-01 14:02 -19.96447 -44.55695 27748 ft 430 kts 201°
2026-05-01 14:02 -19.99288 -44.56813 28191 ft 433 kts 201°
2026-05-01 14:03 -20.02124 -44.57928 28635 ft 436 kts 201°
2026-05-01 14:03 -20.04959 -44.59045 29066 ft 438 kts 201°
2026-05-01 14:03 -20.07833 -44.60176 29496 ft 441 kts 201°
2026-05-01 14:03 -20.10741 -44.61326 29927 ft 443 kts 202°
2026-05-01 14:04 -20.13447 -44.62430 30327 ft 445 kts 202°
2026-05-01 14:04 -20.16345 -44.63626 30748 ft 447 kts 202°
2026-05-01 14:04 -20.19240 -44.64822 31159 ft 449 kts 202°
2026-05-01 14:04 -20.22169 -44.66031 31566 ft 451 kts 203°
2026-05-01 14:05 -20.25106 -44.67242 31952 ft 453 kts 203°
2026-05-01 14:05 -20.28036 -44.68450 32310 ft 455 kts 203°
2026-05-01 14:05 -20.31001 -44.69671 32659 ft 458 kts 203°
2026-05-01 14:05 -20.33984 -44.70902 33032 ft 460 kts 203°
2026-05-01 14:06 -20.37024 -44.72155 33424 ft 462 kts 203°
2026-05-01 14:06 -20.39994 -44.73381 33915 ft 462 kts 203°
2026-05-01 14:06 -20.42999 -44.74641 34506 ft 459 kts 205°
2026-05-01 14:06 -20.45874 -44.76006 35097 ft 455 kts 208°
2026-05-01 14:07 -20.48695 -44.77539 35662 ft 452 kts 211°
2026-05-01 14:07 -20.51420 -44.79222 36188 ft 449 kts 214°
2026-05-01 14:07 -20.54004 -44.81019 36637 ft 447 kts 217°
2026-05-01 14:08 -20.59031 -44.84910 37289 ft 448 kts 219°
2026-05-01 14:08 -20.61556 -44.86895 37617 ft 449 kts 219°
2026-05-01 14:08 -20.64063 -44.88864 37920 ft 450 kts 219°
2026-05-01 14:08 -20.66595 -44.90850 38205 ft 451 kts 219°
2026-05-01 14:09 -20.69136 -44.92843 38245 ft 453 kts 219°
2026-05-01 14:09 -20.74221 -44.96825 38250 ft 451 kts 219°
2026-05-01 14:10 -20.79285 -45.00802 38250 ft 451 kts 219°
2026-05-01 14:10 -20.84320 -45.04764 38248 ft 451 kts 219°
2026-05-01 14:11 -20.89374 -45.08745 38248 ft 450 kts 219°
2026-05-01 14:11 -20.96928 -45.14686 38248 ft 449 kts 219°
2026-05-01 14:12 -21.01990 -45.18675 38247 ft 449 kts 219°
2026-05-01 14:12 -21.06992 -45.22621 38246 ft 449 kts 219°
2026-05-01 14:13 -21.12019 -45.26589 38247 ft 448 kts 219°
2026-05-01 14:13 -21.17062 -45.30574 38249 ft 448 kts 219°
2026-05-01 14:14 -21.22084 -45.34547 38249 ft 448 kts 219°
2026-05-01 14:14 -21.27120 -45.38533 38252 ft 448 kts 219°
2026-05-01 14:15 -21.32145 -45.42514 38253 ft 448 kts 219°
2026-05-01 14:15 -21.37177 -45.46507 38255 ft 448 kts 219°
2026-05-01 14:16 -21.42173 -45.50474 38256 ft 448 kts 219°
2026-05-01 14:16 -21.47181 -45.54454 38253 ft 448 kts 219°
2026-05-01 14:17 -21.52198 -45.58427 38255 ft 447 kts 219°
2026-05-01 14:17 -21.57226 -45.62366 38256 ft 448 kts 219°
2026-05-01 14:18 -21.62269 -45.66322 38259 ft 448 kts 219°
2026-05-01 14:18 -21.66450 -45.69607 38259 ft 447 kts 219°
2026-05-01 14:19 -21.72343 -45.74243 38261 ft 447 kts 219°
2026-05-01 14:19 -21.77345 -45.78184 38263 ft 448 kts 219°
2026-05-01 14:20 -21.84911 -45.84153 38268 ft 446 kts 219°
2026-05-01 14:21 -21.89901 -45.88092 38276 ft 446 kts 219°
2026-05-01 14:21 -21.94915 -45.92056 38285 ft 446 kts 219°
2026-05-01 14:22 -22.02390 -45.97970 38300 ft 446 kts 219°
2026-05-01 14:22 -22.07406 -46.01944 38301 ft 447 kts 220°
2026-05-01 14:23 -22.12408 -46.05912 38291 ft 447 kts 220°
2026-05-01 14:23 -22.17444 -46.09909 38280 ft 447 kts 220°
2026-05-01 14:24 -22.22447 -46.13883 38270 ft 446 kts 220°
2026-05-01 14:24 -22.27454 -46.17841 38262 ft 446 kts 218°
2026-05-01 14:25 -22.32698 -46.21395 38263 ft 448 kts 213°
2026-05-01 14:25 -22.38351 -46.24416 38278 ft 451 kts 208°
2026-05-01 14:26 -22.47007 -46.28508 38295 ft 452 kts 208°
2026-05-01 14:27 -22.52778 -46.31230 38298 ft 452 kts 208°
2026-05-01 14:27 -22.58564 -46.33966 38285 ft 451 kts 208°
2026-05-01 14:28 -22.67224 -46.38066 38269 ft 451 kts 208°
2026-05-01 14:28 -22.73030 -46.40820 38260 ft 451 kts 208°
2026-05-01 14:29 -22.78788 -46.43552 38257 ft 451 kts 208°
2026-05-01 14:30 -22.89414 -46.48602 38243 ft 451 kts 208°
2026-05-01 14:31 -22.98055 -46.52716 38230 ft 451 kts 208°
2026-05-01 14:31 -23.03806 -46.55457 38224 ft 451 kts 208°
2026-05-01 14:32 -23.09598 -46.58219 38224 ft 450 kts 208°
2026-05-01 14:32 -23.15393 -46.60986 38224 ft 451 kts 208°
2026-05-01 14:33 -23.21141 -46.63734 38226 ft 450 kts 208°
2026-05-01 14:33 -23.26922 -46.66501 38232 ft 450 kts 209°
2026-05-01 14:34 -23.32708 -46.69273 38230 ft 450 kts 209°
2026-05-01 14:34 -23.38202 -46.71910 38229 ft 449 kts 209°
2026-05-01 14:35 -23.43842 -46.74622 38226 ft 448 kts 209°
2026-05-01 14:35 -23.49596 -46.77389 38225 ft 448 kts 209°
2026-05-01 14:36 -23.55340 -46.80156 38227 ft 448 kts 209°
2026-05-01 14:36 -23.61085 -46.82910 38230 ft 448 kts 209°
2026-05-01 14:37 -23.66791 -46.85649 38233 ft 448 kts 209°
2026-05-01 14:37 -23.72540 -46.88414 38227 ft 447 kts 209°
2026-05-01 14:38 -23.78290 -46.91187 38219 ft 448 kts 209°
2026-05-01 14:38 -23.84006 -46.93949 38212 ft 447 kts 209°
2026-05-01 14:39 -23.89660 -46.96683 38205 ft 446 kts 209°
2026-05-01 14:39 -23.95465 -46.99494 38204 ft 446 kts 209°
2026-05-01 14:40 -24.01039 -47.02197 38203 ft 446 kts 209°
2026-05-01 14:40 -24.06733 -47.04959 38193 ft 446 kts 209°
2026-05-01 14:41 -24.12442 -47.07733 38180 ft 446 kts 210°
2026-05-01 14:41 -24.18137 -47.10503 38164 ft 447 kts 210°
2026-05-01 14:42 -24.23796 -47.13293 38146 ft 445 kts 211°
2026-05-01 14:42 -24.29242 -47.16547 38133 ft 440 kts 217°
2026-05-01 14:43 -24.34438 -47.20130 38130 ft 439 kts 218°
2026-05-01 14:43 -24.39578 -47.23707 38128 ft 439 kts 218°
2026-05-01 14:44 -24.44760 -47.27315 38126 ft 439 kts 218°
2026-05-01 14:44 -24.52351 -47.32603 38124 ft 440 kts 218°
2026-05-01 14:45 -24.60123 -47.38022 38123 ft 440 kts 218°
2026-05-01 14:46 -24.65317 -47.41648 38122 ft 440 kts 218°
2026-05-01 14:46 -24.72979 -47.47005 38122 ft 440 kts 218°
2026-05-01 14:47 -24.78054 -47.50557 38121 ft 440 kts 218°
2026-05-01 14:48 -24.85801 -47.55986 38123 ft 439 kts 218°
2026-05-01 14:48 -24.93554 -47.61428 38123 ft 439 kts 218°
2026-05-01 14:49 -25.03846 -47.68666 38123 ft 439 kts 219°
2026-05-01 14:50 -25.14016 -47.75832 38122 ft 438 kts 219°
2026-05-01 14:51 -25.21520 -47.81130 38123 ft 438 kts 219°
2026-05-01 14:52 -25.29094 -47.86485 38123 ft 439 kts 219°
2026-05-01 14:53 -25.36767 -47.91918 38124 ft 440 kts 219°
2026-05-01 14:53 -25.41748 -47.95448 38125 ft 439 kts 219°
2026-05-01 14:54 -25.46886 -47.99097 38123 ft 437 kts 219°
2026-05-01 14:54 -25.51921 -48.02676 38124 ft 438 kts 219°
2026-05-01 14:55 -25.56935 -48.06245 38124 ft 438 kts 220°
2026-05-01 14:55 -25.61965 -48.09828 38122 ft 439 kts 220°
2026-05-01 14:56 -25.66943 -48.13370 38121 ft 440 kts 219°
2026-05-01 14:56 -25.71994 -48.16960 38125 ft 439 kts 220°
2026-05-01 14:57 -25.77062 -48.20569 38123 ft 438 kts 219°
2026-05-01 14:57 -25.84673 -48.25998 38122 ft 438 kts 220°
2026-05-01 14:58 -25.89710 -48.29595 38122 ft 439 kts 219°
2026-05-01 14:58 -25.94791 -48.33228 38121 ft 439 kts 220°
2026-05-01 14:59 -25.99910 -48.36894 38124 ft 439 kts 220°
2026-05-01 14:59 -26.04973 -48.40519 38120 ft 438 kts 220°
2026-05-01 15:00 -26.12540 -48.45948 38118 ft 437 kts 220°
2026-05-01 15:01 -26.17635 -48.49611 38122 ft 436 kts 220°
2026-05-01 15:01 -26.22750 -48.53289 38121 ft 436 kts 220°
2026-05-01 15:02 -26.27851 -48.56961 38121 ft 435 kts 220°
2026-05-01 15:02 -26.32943 -48.60634 38121 ft 434 kts 220°
2026-05-01 15:03 -26.38024 -48.64302 38121 ft 434 kts 220°
2026-05-01 15:03 -26.43137 -48.67999 38123 ft 432 kts 221°
2026-05-01 15:04 -26.47298 -48.71011 38124 ft 432 kts 221°
2026-05-01 15:04 -26.52167 -48.74592 38127 ft 431 kts 221°
2026-05-01 15:05 -26.57084 -48.78222 38131 ft 432 kts 221°
2026-05-01 15:05 -26.62116 -48.81940 38134 ft 431 kts 221°
2026-05-01 15:06 -26.67135 -48.85645 38138 ft 431 kts 221°
2026-05-01 15:06 -26.72092 -48.89263 38140 ft 430 kts 221°
2026-05-01 15:07 -26.77040 -48.92870 38132 ft 430 kts 221°
2026-05-01 15:07 -26.82003 -48.96500 38139 ft 430 kts 221°
2026-05-01 15:08 -26.86986 -49.00144 38141 ft 429 kts 221°
2026-05-01 15:08 -26.92006 -49.03824 38142 ft 429 kts 221°
2026-05-01 15:09 -26.97025 -49.07504 38144 ft 428 kts 221°
2026-05-01 15:09 -27.01934 -49.11111 38139 ft 428 kts 221°
2026-05-01 15:10 -27.06824 -49.14703 38148 ft 428 kts 221°
2026-05-01 15:10 -27.13684 -49.19753 38145 ft 425 kts 222°
2026-05-01 15:11 -27.20721 -49.24942 38136 ft 424 kts 222°
2026-05-01 15:12 -27.25668 -49.28594 38145 ft 422 kts 222°
2026-05-01 15:12 -27.33032 -49.34041 38146 ft 422 kts 222°
2026-05-01 15:14 -27.45318 -49.43143 38165 ft 421 kts 223°
2026-05-01 15:14 -27.52493 -49.48472 38175 ft 421 kts 222°
2026-05-01 15:15 -27.62075 -49.55577 38175 ft 419 kts 222°
2026-05-01 15:16 -27.71817 -49.62808 38183 ft 417 kts 222°
2026-05-01 15:18 -27.83697 -49.71360 38205 ft 417 kts 222°
2026-05-01 15:19 -27.93420 -49.78294 38225 ft 415 kts 222°
2026-05-01 15:19 -28.00766 -49.83545 38229 ft 411 kts 223°
2026-05-01 15:20 -28.08081 -49.88789 38231 ft 412 kts 222°
2026-05-01 15:21 -28.12923 -49.92265 38238 ft 412 kts 223°
2026-05-01 15:21 -28.17770 -49.95748 38235 ft 411 kts 223°
2026-05-01 15:22 -28.24944 -50.00911 37852 ft 412 kts 223°
2026-05-01 15:22 -28.27382 -50.02664 37510 ft 409 kts 223°
2026-05-01 15:22 -28.29808 -50.04409 37056 ft 408 kts 223°
2026-05-01 15:23 -28.32080 -50.06048 36439 ft 410 kts 223°
2026-05-01 15:23 -28.34485 -50.07790 35701 ft 411 kts 222°
2026-05-01 15:23 -28.36936 -50.09558 34989 ft 413 kts 222°
2026-05-01 15:23 -28.39381 -50.11325 34266 ft 414 kts 222°
2026-05-01 15:24 -28.41830 -50.13096 33501 ft 417 kts 222°
2026-05-01 15:24 -28.44278 -50.14869 32861 ft 417 kts 222°
2026-05-01 15:24 -28.46735 -50.16642 32469 ft 413 kts 221°
2026-05-01 15:24 -28.49139 -50.18378 32101 ft 408 kts 222°
2026-05-01 15:25 -28.51557 -50.20125 31708 ft 405 kts 222°
2026-05-01 15:25 -28.53925 -50.21840 31305 ft 402 kts 222°
2026-05-01 15:25 -28.56205 -50.23494 30933 ft 398 kts 221°
2026-05-01 15:25 -28.58543 -50.25189 30601 ft 394 kts 222°
2026-05-01 15:26 -28.60845 -50.26857 30252 ft 390 kts 222°
2026-05-01 15:26 -28.63156 -50.28536 29888 ft 387 kts 222°
2026-05-01 15:26 -28.65427 -50.30188 29473 ft 385 kts 222°
2026-05-01 15:26 -28.67692 -50.31839 29070 ft 383 kts 222°
2026-05-01 15:27 -28.69931 -50.33468 28726 ft 380 kts 222°
2026-05-01 15:27 -28.72140 -50.35100 28312 ft 377 kts 223°
2026-05-01 15:27 -28.74259 -50.36823 27846 ft 374 kts 225°
2026-05-01 15:28 -28.78426 -50.40365 27039 ft 370 kts 225°
2026-05-01 15:28 -28.80348 -50.42004 26679 ft 369 kts 225°
2026-05-01 15:28 -28.82400 -50.43756 26289 ft 367 kts 225°
2026-05-01 15:29 -28.86467 -50.47230 25539 ft 363 kts 225°
2026-05-01 15:29 -28.88507 -50.48975 25153 ft 362 kts 225°
2026-05-01 15:29 -28.92525 -50.52410 24431 ft 359 kts 225°
2026-05-01 15:30 -28.96541 -50.55848 23644 ft 357 kts 225°
2026-05-01 15:31 -29.04434 -50.62617 22165 ft 354 kts 224°
2026-05-01 15:31 -29.08191 -50.65844 21496 ft 351 kts 224°
2026-05-01 15:32 -29.11929 -50.69227 20812 ft 346 kts 229°
2026-05-01 15:32 -29.14871 -50.72606 20187 ft 340 kts 234°
2026-05-01 15:33 -29.19556 -50.78689 19093 ft 338 kts 234°
2026-05-01 15:34 -29.24126 -50.84641 18027 ft 336 kts 234°